Bedford, MA

1:46 AM EDT on March 27, 2017 (GMT -0400)
Hanscom

Weather History for KBED - June, 2014

Change the Weather History Date:

Wednesday, June 11, 2014

  Actual Average Record
Temperature  
Mean Temperature 62 °F -  
Max Temperature 71 °F 76 °F 94 °F (1973)
Min Temperature 55 °F 51 °F 39 °F (1980)
Degree Days  
Heating Degree Days 2    
Growing Degree Days 12 (Base 50)    
Moisture  
Dew Point 51 °F    
Average Humidity 69    
Maximum Humidity 93    
Minimum Humidity 43    
Precipitation  
Precipitation 0.00 in - - ()
Sea Level Pressure  
Sea Level Pressure 30.18 in    
Wind  
Wind Speed 7 mph (East)    
Max Wind Speed 16 mph    
Max Gust Speed 23 mph    
Visibility 10 miles    
Events      
Averages and records for this station are not official NWS values.
T = Trace of Precipitation, MM = Missing Value Source: NWS Daily Summary

Daily Weather History Graph

Daily Weather History Graph

Search for Another Location

Airport or City:

Trip Planner

Search our weather history database for the weather conditions in past years. The results will help you decide how hot, cold, wet, or windy it might be!

Date:

Astronomy

Jun. 11, 2014 Rise Set
Actual Time 5:07 AM EDT 8:22 PM EDT
Civil Twilight 4:32 AM EDT 8:57 PM EDT
Nautical Twilight 3:48 AM EDT 9:41 PM EDT
Astronomical Twilight 2:53 AM EDT 10:36 PM EDT
Moon 6:46 PM EDT (6/11) 3:57 AM EDT (6/11)
Length of Visible Light 16h 24m
Length of Day
15h 14m
Waxing Gibbous, 97% of the Moon is Illuminated
Jun 11
Waxing Gibbous
Jun 13
Full
Jun 19
Last Quarter
Jun 27
New
Jul 5
First Quarter

Hourly Weather History & Observations

Time (EDT) Temp. Dew Point Humidity Pressure Visibility Wind Dir Wind Speed Gust Speed Precip Events Conditions
12:56 AM 57.9 °F 55.0 °F 90% 30.14 in 10.0 mi NNE 3.5 mph - N/A   Mostly Cloudy
1:56 AM 57.9 °F 55.0 °F 90% 30.15 in 10.0 mi NE 4.6 mph - N/A   Overcast
2:56 AM 57.0 °F 55.0 °F 93% 30.15 in 10.0 mi NNE 5.8 mph - N/A   Clear
3:56 AM 57.0 °F 53.1 °F 87% 30.14 in 10.0 mi NNE 8.1 mph - N/A   Clear
4:56 AM 55.4 °F 51.8 °F 88% 30.12 in 10.0 mi Calm Calm - N/A   Clear
5:56 AM 55.9 °F 54.0 °F 93% 30.17 in 10.0 mi Calm Calm - N/A   Mostly Cloudy
6:56 AM 57.9 °F 54.0 °F 87% 30.18 in 10.0 mi NE 6.9 mph - N/A   Mostly Cloudy
7:56 AM 62.6 °F 55.4 °F 77% 30.17 in 10.0 mi NE 8.1 mph - N/A   Clear
8:56 AM 64.0 °F 53.1 °F 67% 30.20 in 10.0 mi ENE 10.4 mph - N/A   Clear
9:56 AM 68.0 °F 52.0 °F 56% 30.20 in 10.0 mi East 10.4 mph - N/A   Scattered Clouds
10:56 AM 69.8 °F 46.4 °F 43% 30.18 in 10.0 mi East 13.8 mph - N/A   Clear
11:56 AM 70.0 °F 52.0 °F 53% 30.21 in 10.0 mi ESE 12.7 mph 20.7 mph N/A   Clear
12:56 PM 70.0 °F 48.9 °F 47% 30.20 in 10.0 mi ENE 16.1 mph 23.0 mph N/A   Clear
1:56 PM 70.0 °F 48.9 °F 47% 30.20 in 10.0 mi ESE 11.5 mph - N/A   Overcast
2:56 PM 68.0 °F 46.9 °F 47% 30.20 in 10.0 mi ESE 12.7 mph - N/A   Mostly Cloudy
3:56 PM 66.2 °F 46.4 °F 49% 30.17 in 10.0 mi ESE 12.7 mph - N/A   Overcast
4:56 PM 66.2 °F 46.4 °F 49% 30.16 in 10.0 mi ESE 12.7 mph - N/A   Overcast
5:56 PM 64.0 °F 48.9 °F 58% 30.18 in 10.0 mi East 13.8 mph - N/A   Overcast
6:56 PM 63.0 °F 48.0 °F 58% 30.17 in 10.0 mi East 8.1 mph - N/A   Mostly Cloudy
7:56 PM 62.1 °F 48.9 °F 62% 30.17 in 10.0 mi ESE 10.4 mph - N/A   Overcast
8:56 PM 60.1 °F 51.1 °F 72% 30.18 in 10.0 mi East 5.8 mph - N/A   Partly Cloudy
9:56 PM 59.0 °F 52.0 °F 78% 30.19 in 10.0 mi East 9.2 mph - N/A   Overcast
10:56 PM 59.0 °F 53.1 °F 81% 30.20 in 10.0 mi East 5.8 mph - N/A   Overcast
11:56 PM 57.9 °F 54.0 °F 87% 30.19 in 10.0 mi ENE 4.6 mph - N/A   Overcast